Delta, CO

10:50 AM MDT on August 20, 2017 (GMT -0600)
Delta

Weather History for KAJZ - February, 2013

Change the Weather History Date:

Wednesday, February 6, 2013

  Actual Average (KMTJ) Record (KMTJ)
Temperature  
Mean Temperature 38 °F -  
Max Temperature 51 °F 39 °F 65 °F (2015)
Min Temperature 25 °F 18 °F 0 °F (2008)
Degree Days  
Heating Degree Days 27    
Moisture  
Dew Point 26 °F    
Average Humidity 66    
Maximum Humidity 88    
Minimum Humidity 36    
Precipitation  
Precipitation 0.00 in - - ()
Sea Level Pressure  
Sea Level Pressure 29.99 in    
Wind  
Wind Speed 4 mph (NE)    
Max Wind Speed 9 mph    
Max Gust Speed -    
Visibility 10 miles    
Events      
Averages and records for this station are not official NWS values.
T = Trace of Precipitation, MM = Missing Value Source: NWS Daily Summary

Daily Weather History Graph

Daily Weather History Graph

Search for Another Location

Airport or City:

Trip Planner

Search our weather history database for the weather conditions in past years. The results will help you decide how hot, cold, wet, or windy it might be!

Date:

Astronomy

Feb. 06, 2013 Rise Set
Actual Time 7:13 AM MST 5:40 PM MST
Civil Twilight 6:45 AM MST 6:07 PM MST
Nautical Twilight 6:13 AM MST 6:39 PM MST
Astronomical Twilight 5:42 AM MST 7:10 PM MST
Moon 3:58 AM MST (2/6) 2:02 PM MST (2/6)
Length of Visible Light 11h 22m
Length of Day
10h 26m
Waning Crescent, 16% of the Moon is Illuminated
Feb 6
Waning Crescent
Feb 10
New
Feb 17
First Quarter
Feb 25
Full
Mar 4
Last Quarter

Hourly Weather History & Observations

Time (MST) Temp. Windchill Dew Point Humidity Pressure Visibility Wind Dir Wind Speed Gust Speed Precip Events Conditions
12:15 AM 31.1 °F 23.7 °F 25.0 °F 78% 30.00 in 10.0 mi NE 8.1 mph - N/A   Clear
12:35 AM 32.0 °F 26.4 °F 25.0 °F 75% 30.00 in 10.0 mi ENE 5.8 mph - N/A   Clear
12:55 AM 31.1 °F 27.7 °F 24.4 °F 76% 30.00 in 10.0 mi SE 3.5 mph - N/A   Clear
1:15 AM 29.3 °F - 24.6 °F 83% 30.00 in 10.0 mi Calm Calm - N/A   Clear
1:35 AM 29.3 °F 23.2 °F 24.8 °F 83% 30.00 in 10.0 mi NNW 5.8 mph - N/A   Clear
1:55 AM 29.7 °F 24.7 °F 24.8 °F 82% 30.00 in 10.0 mi NNW 4.6 mph - N/A   Clear
2:15 AM 29.1 °F 22.1 °F 23.7 °F 80% 29.99 in 10.0 mi ENE 6.9 mph - N/A   Clear
2:35 AM 29.7 °F 24.7 °F 23.9 °F 79% 29.99 in 10.0 mi East 4.6 mph - N/A   Clear
2:55 AM 27.3 °F 22.0 °F 23.7 °F 86% 29.98 in 10.0 mi East 4.6 mph - N/A   Clear
3:15 AM 27.7 °F - 23.5 °F 84% 29.99 in 10.0 mi Calm Calm - N/A   Clear
3:35 AM 27.1 °F - 22.5 °F 83% 29.98 in 10.0 mi Calm Calm - N/A   Clear
3:55 AM 26.4 °F 22.4 °F 22.6 °F 86% 29.98 in 10.0 mi ENE 3.5 mph - N/A   Clear
4:15 AM 26.6 °F - 22.3 °F 84% 29.99 in 10.0 mi Calm Calm - N/A   Clear
4:35 AM 26.6 °F - 22.6 °F 85% 29.98 in 10.0 mi Calm Calm - N/A   Clear
4:55 AM 26.6 °F - 22.6 °F 85% 29.98 in 10.0 mi Calm Calm - N/A   Clear
5:15 AM 27.9 °F - 22.6 °F 81% 29.99 in 10.0 mi Calm Calm - N/A   Clear
5:35 AM 27.0 °F 21.6 °F 22.8 °F 84% 29.99 in 10.0 mi NE 4.6 mph - N/A   Clear
5:55 AM 27.5 °F - 22.3 °F 81% 29.99 in 10.0 mi Calm Calm - N/A   Clear
6:15 AM 27.5 °F 23.6 °F 22.1 °F 80% 29.99 in 10.0 mi East 3.5 mph - N/A   Clear
6:35 AM 26.2 °F - 22.1 °F 84% 29.99 in 10.0 mi Calm Calm - N/A   Clear
6:55 AM 26.1 °F - 22.3 °F 86% 29.98 in 10.0 mi Calm Calm - N/A   Clear
7:15 AM 26.1 °F - 21.6 °F 83% 29.98 in 10.0 mi Calm Calm - N/A   Clear
7:35 AM 25.2 °F - 21.9 °F 87% 29.99 in 10.0 mi Calm Calm - N/A   Clear
7:55 AM 26.2 °F 22.1 °F 23.0 °F 88% 30.00 in 10.0 mi WNW 3.5 mph - N/A   Clear
8:15 AM 28.0 °F - 23.2 °F 82% 30.00 in 10.0 mi Calm Calm - N/A   Clear
8:35 AM 30.9 °F - 23.5 °F 74% 30.00 in 10.0 mi Calm Calm - N/A   Scattered Clouds
8:55 AM 31.8 °F 28.5 °F 23.9 °F 73% 30.00 in 10.0 mi NE 3.5 mph - N/A   Scattered Clouds
9:35 AM 34.2 °F 31.2 °F 23.4 °F 65% 30.00 in 10.0 mi ENE 3.5 mph - N/A   Overcast
9:55 AM 34.7 °F 31.8 °F 23.7 °F 64% 29.99 in 10.0 mi East 3.5 mph - N/A   Mostly Cloudy
10:15 AM 37.0 °F 34.5 °F 25.5 °F 63% 29.99 in 10.0 mi East 3.5 mph - N/A   Mostly Cloudy
10:35 AM 38.8 °F 35.4 °F 24.8 °F 57% 29.98 in 10.0 mi NE 4.6 mph - N/A   Scattered Clouds
10:55 AM 39.2 °F 37.0 °F 25.2 °F 57% 29.98 in 10.0 mi NE 3.5 mph - N/A   Clear
11:15 AM 40.1 °F - 25.3 °F 56% 29.98 in 10.0 mi Calm Calm - N/A   Mostly Cloudy
11:35 AM 42.6 °F - 22.8 °F 46% 29.97 in 10.0 mi Calm Calm - N/A   Overcast
11:55 AM 43.7 °F 41.1 °F 22.6 °F 43% 29.96 in 10.0 mi South 4.6 mph - N/A   Overcast
12:15 PM 44.1 °F - 23.7 °F 45% 29.95 in 10.0 mi Calm Calm - N/A   Overcast
12:35 PM 45.3 °F 43.0 °F 23.9 °F 43% 29.95 in 10.0 mi WSW 4.6 mph - N/A   Overcast
12:55 PM 45.5 °F 43.2 °F 23.9 °F 43% 29.94 in 10.0 mi West 4.6 mph - N/A   Overcast
1:15 PM 45.9 °F 42.3 °F 24.1 °F 42% 29.94 in 10.0 mi West 6.9 mph - N/A   Overcast
1:35 PM 47.3 °F - 23.7 °F 40% 29.93 in 10.0 mi WSW 9.2 mph - N/A   Overcast
1:55 PM 46.8 °F - 27.5 °F 47% 29.93 in 10.0 mi West 6.9 mph - N/A   Overcast
2:15 PM 48.0 °F - 26.4 °F 43% 29.93 in 10.0 mi WSW 4.6 mph - N/A   Overcast
2:35 PM 48.4 °F - 27.5 °F 44% 29.93 in 10.0 mi WSW 5.8 mph - N/A   Overcast
2:55 PM 50.9 °F - 26.4 °F 39% 29.93 in 10.0 mi Calm Calm - N/A   Scattered Clouds
3:15 PM 51.8 °F - 25.5 °F 36% 29.93 in 10.0 mi Calm Calm - N/A   Scattered Clouds
3:35 PM 50.0 °F - 27.0 °F 41% 29.94 in 10.0 mi East 8.1 mph - N/A   Scattered Clouds
3:55 PM 49.1 °F - 27.1 °F 43% 29.94 in 10.0 mi East 8.1 mph - N/A   Mostly Cloudy
4:15 PM 50.2 °F - 29.3 °F 45% 29.94 in 10.0 mi East 6.9 mph - N/A   Overcast
4:35 PM 50.0 °F - 30.7 °F 48% 29.94 in 10.0 mi NE 3.5 mph - N/A   Overcast
4:55 PM 48.0 °F - 27.5 °F 45% 29.95 in 10.0 mi NNE 6.9 mph - N/A   Overcast
5:15 PM 46.9 °F - 27.7 °F 47% 29.96 in 10.0 mi Calm Calm - N/A   Overcast
5:35 PM 47.3 °F - 27.5 °F 46% 29.97 in 10.0 mi Calm Calm - N/A   Overcast
5:55 PM 46.4 °F 45.2 °F 30.4 °F 54% 29.98 in 10.0 mi ESE 3.5 mph - N/A   Overcast
6:15 PM 43.9 °F 39.9 °F 30.9 °F 60% 29.98 in 10.0 mi NE 6.9 mph - N/A   Overcast
6:35 PM 42.8 °F 38.0 °F 30.4 °F 62% 30.00 in 10.0 mi NW 8.1 mph - N/A   Overcast
6:55 PM 42.4 °F 39.6 °F 29.8 °F 61% 30.00 in 10.0 mi NNE 4.6 mph - N/A   Overcast
7:15 PM 43.0 °F - 29.3 °F 59% 30.01 in 10.0 mi Calm Calm - N/A   Mostly Cloudy
7:35 PM 42.3 °F - 29.7 °F 61% 30.02 in 10.0 mi Calm Calm - N/A   Overcast
7:55 PM 42.4 °F 40.7 °F 30.0 °F 61% 30.02 in 10.0 mi NNE 3.5 mph - N/A   Overcast
8:15 PM 41.2 °F 38.2 °F 29.3 °F 63% 30.03 in 10.0 mi West 4.6 mph - N/A   Scattered Clouds
8:35 PM 39.9 °F 33.9 °F 28.4 °F 63% 30.03 in 10.0 mi SW 9.2 mph - N/A   Scattered Clouds
9:15 PM 36.9 °F - 28.6 °F 72% 30.07 in 10.0 mi Calm Calm - N/A   Scattered Clouds
9:35 PM 35.4 °F 29.7 °F 27.5 °F 73% 30.07 in 10.0 mi North 6.9 mph - N/A   Scattered Clouds
9:55 PM 35.4 °F 29.7 °F 28.4 °F 76% 30.08 in 10.0 mi North 6.9 mph - N/A   Clear
10:15 PM 35.4 °F 31.5 °F 28.0 °F 75% 30.09 in 10.0 mi North 4.6 mph - N/A   Clear
10:35 PM 35.2 °F - 28.4 °F 76% 30.09 in 10.0 mi Calm Calm - N/A   Clear
11:15 PM 32.0 °F - 26.6 °F 80% 30.10 in 10.0 mi Calm Calm - N/A   Clear
11:35 PM 32.2 °F 26.7 °F 27.3 °F 82% 30.11 in 10.0 mi ENE 5.8 mph - N/A   Clear
11:55 PM 32.0 °F 25.6 °F 27.3 °F 83% 30.12 in 10.0 mi ENE 6.9 mph - N/A   Clear